| time (UTC) | temp C | wind direction | speed KPH | gust KPH | rain 1hr cm | rain 24hr cm | rain mn cm | humidity % | barometer mb |
| 20260504050017 | 10 | 0.0 | 0.0 | 0.00 | 0.00 | 0.00 | 63 | 1003.9 | |
| 20260504043017 | 11 | 0.0 | 0.0 | 0.00 | 0.00 | 0.00 | 54 | 1004.2 | |
| 20260504040017 | 12 | 270 | 1.6 | 4.8 | 0.00 | 0.00 | 0.00 | 49 | 1004.4 |
| 20260504033037 | 14 | 0.0 | 1.6 | 0.00 | 0.00 | 0.00 | 45 | 1004.7 | |
| 20260504030017 | 15 | 0.0 | 6.4 | 0.00 | 0.00 | 0.00 | 40 | 1004.9 | |
| 20260504023058 | 17 | 270 | 4.8 | 16.1 | 0.00 | 0.00 | 0.00 | 37 | 1004.8 |
| 20260504020017 | 18 | 248 | 4.8 | 12.9 | 0.00 | 0.00 | 0.00 | 32 | 1004.6 |
| 20260504013017 | 19 | 270 | 4.8 | 9.7 | 0.00 | 0.00 | 0.00 | 31 | 1004.2 |
| 20260504010017 | 20 | 270 | 4.8 | 17.7 | 0.00 | 0.00 | 0.00 | 29 | 1003.9 |
| 20260504003017 | 21 | 270 | 9.7 | 29.0 | 0.00 | 0.00 | 0.00 | 27 | 1004.0 |
| 20260504000038 | 22 | 270 | 11.3 | 32.2 | 0.00 | 0.00 | 0.00 | 25 | 1003.9 |
| 20260503233017 | 23 | 270 | 6.4 | 27.4 | 0.00 | 0.00 | 0.00 | 25 | 1003.9 |
| 20260503230017 | 24 | 293 | 6.4 | 27.4 | 0.00 | 0.00 | 0.00 | 24 | 1003.9 |
| 20260503223017 | 25 | 270 | 9.7 | 35.4 | 0.00 | 0.00 | 0.00 | 25 | 1003.8 |
| 20260503220017 | 25 | 293 | 11.3 | 40.2 | 0.00 | 0.00 | 0.00 | 25 | 1003.8 |
| 20260503213036 | 25 | 293 | 9.7 | 35.4 | 0.00 | 0.00 | 0.00 | 25 | 1003.8 |
| 20260503210037 | 25 | 315 | 9.7 | 29.0 | 0.00 | 0.00 | 0.00 | 27 | 1003.9 |
| 20260503203017 | 25 | 293 | 12.9 | 46.7 | 0.00 | 0.00 | 0.00 | 29 | 1004.1 |
| 20260503200017 | 25 | 293 | 12.9 | 40.2 | 0.00 | 0.00 | 0.00 | 27 | 1004.2 |
| 20260503193017 | 25 | 293 | 11.3 | 35.4 | 0.00 | 0.00 | 0.00 | 28 | 1004.4 |
| 20260503190017 | 24 | 270 | 11.3 | 32.2 | 0.00 | 0.00 | 0.00 | 31 | 1004.4 |
| 20260503183017 | 23 | 270 | 11.3 | 32.2 | 0.00 | 0.00 | 0.00 | 31 | 1004.6 |
| 20260503180037 | 22 | 225 | 11.3 | 29.0 | 0.00 | 0.00 | 0.00 | 36 | 1004.9 |
| 20260503173017 | 21 | 225 | 12.9 | 38.6 | 0.00 | 0.00 | 0.00 | 39 | 1005.2 |
| 20260503170107 | 20 | 225 | 12.9 | 35.4 | 0.00 | 0.00 | 0.00 | 39 | 1005.5 |